Location: Clermont
(50.2608°N, 4.3172°E)
Time: 05:40:09
(UTC+00:00)

Cosmos 2219 Rocket - Pass Details

Date: 13 August 2020
Orbit: 826 x 848 km, 71.0° (Epoch: 23 September)

Event Time Altitude Azimuth Distance (km) Brightness Sun altitude
Rises 22:07:15 0° 331° (NNW) 3,417 6.9 -21.8°
Reaches altitude 10° 22:09:44 10° 334° (NNW) 2,480 5.8 -22.0°
Maximum altitude 22:15:24 67° 57° (ENE) 919 2.3 -22.3°
Enters shadow 22:17:07 45° 122° (ESE) 1,152 2.5 -22.5°
